Weather History for Elko, NV

Change the Weather History Date:

Monday, February 4, 2013

  Actual Average Record
Temperature  
Mean Temperature 32 °F 27 °F  
Max Temperature 45 °F 38 °F 58 °F (1963)
Min Temperature 18 °F 16 °F -19 °F (1989)
Degree Days  
Heating Degree Days 33 38  
Month to date heating degree days 145 153  
Since 1 July heating degree days 4165 4338  
Cooling Degree Days 0 0  
Month to date cooling degree days 0 0  
Year to date cooling degree days 0 0  
Moisture  
Dew Point 24 °F    
Average Humidity 73    
Maximum Humidity 92    
Minimum Humidity 53    
Precipitation  
Precipitation 0.00 in 0.03 in 0.67 in (1996)
Month to date precipitation 0.00 0.12  
Year to date precipitation 0.69 1.24  
Snow  
Snow 0.00 in 0.30 in 8.40 in (1996)
Month to date snowfall 0.0 1.1  
Since 1 July snowfall 30.9 27.2  
Snow Depth 5.00 in    
Sea Level Pressure  
Sea Level Pressure 30.24 in    
Wind  
Wind Speed 1 mph (South)    
Max Wind Speed 8 mph    
Max Gust Speed 9 mph    
Visibility 10 miles    
Events      
T = Trace of Precipitation, MM = Missing Value Source: NWS Daily Summary

Daily Weather History Graph

Daily Weather History Graph

Search for Another Location

Airport:

Trip Planner

Search our weather history database for the weather conditions in past years. The results will help you decide how hot, cold, wet, or windy it might be!

Date:

Astronomy

Feb. 04, 2013 Rise Set
Actual Time 6:49 AM PST 5:04 PM PST
Civil Twilight 6:21 AM PST 5:33 PM PST
Nautical Twilight 5:48 AM PST 6:06 PM PST
Astronomical Twilight 5:16 AM PST 6:38 PM PST
Moon 1:31 AM PST (2/4) 11:31 AM PST (2/4)
Length of Visible Light 11h 12m
Length of Day
10h 14m
Last Quarter, 36% of the Moon is Illuminated
Feb 4
Last Quarter
Feb 9
New
Feb 17
First Quarter
Feb 25
Full
Mar 4
Last Quarter

Hourly Weather History & Observations

Time (PST) Temp. Windchill Dew Point Humidity Pressure Visibility Wind Dir Wind Speed Gust Speed Precip Events Conditions
12:56 AM 19.9 °F - 17.1 °F 89% 30.29 in 6.0 mi Calm Calm - N/A   Clear
2:56 AM 19.9 °F - 18.0 °F 92% 30.29 in 10.0 mi Calm Calm - N/A   Clear
3:56 AM 19.9 °F - 17.1 °F 89% 30.30 in 10.0 mi Calm Calm - N/A   Clear
4:56 AM 19.9 °F 14.9 °F 18.0 °F 92% 30.30 in 9.0 mi ESE 3.5 mph - N/A   Clear
5:56 AM 21.0 °F - 19.0 °F 92% 30.31 in 10.0 mi Calm Calm - N/A   Mostly Cloudy
6:56 AM 21.0 °F - 18.0 °F 88% 30.30 in 10.0 mi Calm Calm - N/A   Partly Cloudy
7:56 AM 24.1 °F - 21.0 °F 88% 30.32 in 9.0 mi Calm Calm - N/A   Clear
8:56 AM 28.0 °F - 23.0 °F 81% 30.31 in 8.0 mi Calm Calm - N/A   Clear
9:56 AM 33.1 °F - 27.0 °F 78% 30.31 in 10.0 mi Calm Calm - N/A   Clear
10:56 AM 35.1 °F - 27.0 °F 72% 30.30 in 10.0 mi Calm Calm - N/A   Clear
11:56 AM 37.0 °F 33.3 °F 27.0 °F 67% 30.27 in 10.0 mi West 4.6 mph - N/A   Clear
12:56 PM 39.9 °F 37.8 °F 28.0 °F 63% 30.25 in 10.0 mi SSW 3.5 mph - N/A   Clear
1:56 PM 42.1 °F 40.2 °F 28.0 °F 58% 30.20 in 10.0 mi SSW 3.5 mph - N/A   Clear
2:56 PM 43.0 °F - 28.9 °F 58% 30.18 in 10.0 mi Calm Calm - N/A   Clear
3:56 PM 44.1 °F - 28.9 °F 55% 30.17 in 10.0 mi Calm Calm - N/A   Clear
4:56 PM 37.9 °F - 28.9 °F 70% 30.18 in 10.0 mi Calm Calm - N/A   Clear
5:56 PM 33.1 °F - 27.0 °F 78% 30.21 in 10.0 mi Calm Calm - N/A   Clear
6:56 PM 32.0 °F - 26.1 °F 79% 30.21 in 10.0 mi Calm Calm - N/A   Clear
7:56 PM 30.9 °F - 26.1 °F 82% 30.20 in 10.0 mi Calm Calm - N/A   Clear
8:56 PM 28.0 °F - 23.0 °F 81% 30.20 in 10.0 mi Calm Calm - N/A   Clear
9:56 PM 28.0 °F - 24.1 °F 85% 30.17 in 10.0 mi Calm Calm - N/A   Clear
10:56 PM 26.1 °F - 23.0 °F 88% 30.17 in 10.0 mi Calm Calm - N/A   Clear
11:56 PM 26.1 °F 19.4 °F 23.0 °F 88% 30.16 in 10.0 mi East 5.8 mph - N/A   Clear